User: anonymous
Location: Caribou
(46.8667°N, 68.0167°W)
Time: 11:20:22
(UTC-04:00)
Language:

SL-08 RB Rocket - Orbit

View from above orbital plane
View from above orbital plane
View from above satellite
View from above satellite

Ground track
Ground track

The orbit data is extracted from the following two-line orbital elements,

1 26387U 00033D   14204.15789345  .00000157  00000-0  36310-4 0  5597
2 26387 098.1038 271.4653 0028333 100.0479 290.4029 14.67317479752363
Epoch (UTC): 23 July 2014 03:47:21
Eccentricity: 0.0028333
inclination: 98.1038°
perigee height: 649 km
apogee height: 689 km
right ascension of ascending node: 271.4653°
argument of perigee: 100.0479°
revolutions per day: 14.67317479
mean anomaly at epoch: 290.4029°
orbit number at epoch: 75236

The dashed part of the orbit path shows where the satellite is in the earth's shadow,  

DLR